FENGYUN 1C DEB, 30936

Orbit data source: Space-Track

FENGYUN 1C DEB, 30936 is space debris in SSO originally from a launch on Mon, 10 May 1999 UTC launched from the Taiyaun Space Center, China (TSC). Fengyun 1C debris stems from the Chinese weather satellite Fengyun-1C, which was intentionally destroyed by a Chinese anti-satellite missile in 2007. This event dramatically increased the amount of space debris, with thousands of trackable fragments posing hazards to satellites and human spaceflight. The Fengyun 1C debris cloud has become a focal point in discussions about space sustainability and the need for international regulations to prevent the creation of new debris.

Loading next visibility...
Identifier
30936, 1999-025BAA
Orbit
SSO
Country
Flag of CNCN / PRC
Related business
Manufacturer
Unknown
Mission
Spacecraft
Bus & Motor
Unknown
Mass
Unknown
Launch date (UTC)
1999-05-10 (27 years ago)
Launch vehicle
Unknown
Launch site
Taiyaun Space Center, China (TSC)
Object type
Payload
Rocket body
Debris
Shape & HBR
Unknown shape, 0.1 m
Radar Cross Section
Medium (>0.1 m² and <1 m²)

Expand to show TLE details & history
Last TLE update: 14 hours ago

TLE from 14 hours ago
0 FENGYUN 1C DEB
1 30936U 99025BAA 26169.34431869  .00000739  00000-0  33767-3 0  9996
2 30936  98.5595 200.3465 0048112 104.5767 274.7838 14.23778288998027
Epoch: 2026-06-18T08:15Z
TLE epoch observation values (Epoch: 2026-06-18T08:15:49.134Z)
Latitude
18.58944°
Longitude
166.9165°
Altitude
812.286 km
Speed
7.45 km/s
True Right ascension
13h 09m 50s
True Declination
18° 29' 12"
Sunlit
Object was in daylight at epoch
Visualization orbit readout
Latitude
Unknown
Longitude
Unknown
Altitude
Unknown
Speed
Unknown
Apparent Right ascension
Unknown
Apparent Declination
Unknown
Sunlit
N/A
Visualization observer readout
Local Sidereal Time
08:53:22
Azimuth
Unknown
Elevation
Unknown
Doppler factor
Unknown
Orbital elements
Apogee altitude
844.332 km
Perigee altitude
775.167 km
Semi-major axis
7,187.886 km
Eccentricity
0.00481
Inclination
98.5595°
RAAN
200.3465°
Arg. of periapsis
104.5767°
True anomaly
274.23413°
Mean anomaly
274.7838°
Eccentric anomaly
274.50899°
Mean motion
3.56157 °/min
Orbital period
101.08 mins
BSTAR
0.00033767
Loading maneuver chart data...
Computing Atmospheric mass density...
Loading historical data...
Loading historical data...
Loading historical data...
Loading historical data...
Loading historical data...
Loading historical data...
Loading historical data...

Documentation

Showing up to 5 results
|